AAW1102 OMDB-OBBI

Flight info

Callsign AAW1102
Flight time 0h 54m
Altitude 26000
Route NABIX P699 ORMID M556 ORDIG
Aircraft A339/H-SADE1E2E3GHIJ3J5M1P2RWXY/LB2D1

Departure

Time 2026-05-08 02:13
Airport Dubai International Airport (OMDB)

Arrival

Time 2026-05-08 03:08
Airport Bahrain International Airport (OBBI)
Time Latitude Longitude Altitude Speed Heading
2026-05-08 01:21 25.26029 55.36556 28 ft 0 kts 32°
2026-05-08 01:43 25.26026 55.36553 28 ft 0 kts 32°
2026-05-08 01:43 25.26003 55.36538 26 ft 0 kts 31°
2026-05-08 01:44 25.25980 55.36524 25 ft 0 kts 39°
2026-05-08 01:44 25.25967 55.36509 27 ft 0 kts 73°
2026-05-08 01:44 25.25962 55.36490 27 ft 0 kts 123°
2026-05-08 01:44 25.25977 55.36467 26 ft 0 kts 122°
2026-05-08 01:45 25.25978 55.36466 26 ft 0 kts 122°
2026-05-08 01:47 25.25978 55.36467 26 ft 0 kts 122°
2026-05-08 01:47 25.25977 55.36467 26 ft 0 kts 122°
2026-05-08 01:48 25.25977 55.36468 26 ft 0 kts 122°
2026-05-08 01:48 25.25976 55.36470 26 ft 0 kts 122°
2026-05-08 01:49 25.25975 55.36470 25 ft 0 kts 122°
2026-05-08 01:50 25.25975 55.36471 25 ft 0 kts 122°
2026-05-08 01:50 25.25974 55.36472 25 ft 0 kts 122°
2026-05-08 01:50 25.25974 55.36473 25 ft 0 kts 122°
2026-05-08 01:50 25.25973 55.36474 25 ft 0 kts 122°
2026-05-08 01:51 25.25973 55.36475 25 ft 0 kts 122°
2026-05-08 01:51 25.25973 55.36476 25 ft 0 kts 122°
2026-05-08 01:51 25.25972 55.36476 25 ft 0 kts 122°
2026-05-08 01:52 25.25972 55.36477 25 ft 0 kts 122°
2026-05-08 01:53 25.25451 55.37612 33 ft 0 kts 31°
2026-05-08 01:54 25.25437 55.37603 33 ft 7 kts 31°
2026-05-08 01:54 25.25381 55.37565 32 ft 10 kts 31°
2026-05-08 01:54 25.25373 55.37560 32 ft 0 kts 31°
2026-05-08 01:54 25.25374 55.37560 32 ft 0 kts 31°
2026-05-08 01:55 25.25375 55.37561 32 ft 0 kts 31°
2026-05-08 01:55 25.26029 55.36556 27 ft 0 kts 32°
2026-05-08 02:03 25.26012 55.36544 27 ft 4 kts 32°
2026-05-08 02:03 25.25989 55.36528 26 ft 4 kts 31°
2026-05-08 02:03 25.25972 55.36517 27 ft 3 kts 65°
2026-05-08 02:04 25.25962 55.36498 27 ft 4 kts 105°
2026-05-08 02:04 25.25972 55.36475 26 ft 4 kts 125°
2026-05-08 02:04 25.25978 55.36466 26 ft 0 kts 122°
2026-05-08 02:06 25.25971 55.36478 26 ft 9 kts 122°
2026-05-08 02:06 25.25926 55.36559 28 ft 14 kts 122°
2026-05-08 02:06 25.25878 55.36645 28 ft 14 kts 122°
2026-05-08 02:07 25.25874 55.36652 28 ft 0 kts 122°
2026-05-08 02:07 25.25866 55.36666 28 ft 4 kts 122°
2026-05-08 02:08 25.25825 55.36738 28 ft 0 kts 122°
2026-05-08 02:08 25.25800 55.36783 28 ft 13 kts 122°
2026-05-08 02:08 25.25778 55.36822 28 ft 3 kts 121°
2026-05-08 02:08 25.25760 55.36857 28 ft 7 kts 120°
2026-05-08 02:09 25.25727 55.36920 28 ft 12 kts 121°
2026-05-08 02:09 25.25669 55.37024 28 ft 19 kts 122°
2026-05-08 02:09 25.25603 55.37143 28 ft 18 kts 122°
2026-05-08 02:09 25.25531 55.37271 29 ft 21 kts 121°
2026-05-08 02:10 25.25454 55.37412 31 ft 22 kts 121°
2026-05-08 02:10 25.25382 55.37542 33 ft 20 kts 121°
2026-05-08 02:10 25.25309 55.37673 36 ft 21 kts 122°
2026-05-08 02:10 25.25232 55.37810 40 ft 21 kts 121°
2026-05-08 02:11 25.25154 55.37953 43 ft 22 kts 121°
2026-05-08 02:11 25.25072 55.38100 46 ft 23 kts 121°
2026-05-08 02:11 25.25013 55.38206 47 ft 14 kts 122°
2026-05-08 02:11 25.24939 55.38246 48 ft 9 kts 189°
2026-05-08 02:12 25.24876 55.38204 49 ft 12 kts 211°
2026-05-08 02:12 25.24797 55.38146 49 ft 15 kts 223°
2026-05-08 02:12 25.24800 55.38054 45 ft 2 kts 302°
2026-05-08 02:12 25.24807 55.38037 48 ft 5 kts 297°
2026-05-08 02:13 25.24865 55.37933 46 ft 54 kts 301°
2026-05-08 02:13 25.25278 55.37179 32 ft 168 kts 301°
2026-05-08 02:13 25.25986 55.35907 578 ft 205 kts 301°
2026-05-08 02:13 25.26694 55.34567 1843 ft 194 kts 300°
2026-05-08 02:14 25.27375 55.33349 3161 ft 180 kts 300°
2026-05-08 02:14 25.28045 55.32180 4218 ft 183 kts 300°
2026-05-08 02:14 25.28735 55.30955 5220 ft 191 kts 300°
2026-05-08 02:14 25.29280 55.29626 6305 ft 192 kts 280°
2026-05-08 02:15 25.29151 55.28153 7166 ft 199 kts 248°
2026-05-08 02:15 25.28515 55.26762 7963 ft 210 kts 242°
2026-05-08 02:15 25.27823 55.25307 8806 ft 217 kts 242°
2026-05-08 02:15 25.27139 55.23807 9737 ft 220 kts 243°
2026-05-08 02:16 25.26468 55.22268 10554 ft 225 kts 243°
2026-05-08 02:16 25.25791 55.20678 11301 ft 235 kts 243°
2026-05-08 02:16 25.25066 55.18963 11732 ft 258 kts 243°
2026-05-08 02:16 25.24307 55.17095 12224 ft 273 kts 247°
2026-05-08 02:17 25.23812 55.15047 12996 ft 279 kts 258°
2026-05-08 02:17 25.23544 55.12876 13513 ft 296 kts 259°
2026-05-08 02:17 25.23246 55.10530 13733 ft 321 kts 259°
2026-05-08 02:17 25.22910 55.08001 13937 ft 344 kts 259°
2026-05-08 02:18 25.22545 55.05311 14110 ft 364 kts 259°
2026-05-08 02:18 25.22159 55.02491 14555 ft 374 kts 259°
2026-05-08 02:18 25.21769 54.99647 15226 ft 376 kts 260°
2026-05-08 02:18 25.21374 54.96779 15865 ft 379 kts 260°
2026-05-08 02:19 25.21019 54.93883 16478 ft 382 kts 264°
2026-05-08 02:19 25.20815 54.90941 17084 ft 386 kts 264°
2026-05-08 02:19 25.20609 54.87977 17700 ft 389 kts 264°
2026-05-08 02:19 25.20399 54.84984 18282 ft 393 kts 264°
2026-05-08 02:20 25.20184 54.81975 18886 ft 394 kts 264°
2026-05-08 02:20 25.19966 54.78953 19465 ft 396 kts 264°
2026-05-08 02:20 25.19823 54.75911 20021 ft 399 kts 269°
2026-05-08 02:20 25.19978 54.72842 20598 ft 401 kts 273°
2026-05-08 02:21 25.20173 54.69759 21170 ft 404 kts 272°
2026-05-08 02:21 25.20360 54.66650 21759 ft 406 kts 272°
2026-05-08 02:21 25.20543 54.63525 22329 ft 409 kts 272°
2026-05-08 02:21 25.20725 54.60378 22917 ft 412 kts 272°
2026-05-08 02:22 25.20904 54.57255 23473 ft 414 kts 272°
2026-05-08 02:22 25.21123 54.54075 23988 ft 416 kts 275°
2026-05-08 02:22 25.21645 54.50919 24492 ft 419 kts 282°
2026-05-08 02:22 25.22437 54.47802 24996 ft 422 kts 284°
2026-05-08 02:23 25.23239 54.44683 25488 ft 424 kts 284°
2026-05-08 02:23 25.24035 54.41544 25733 ft 425 kts 284°
2026-05-08 02:23 25.24830 54.38388 25804 ft 432 kts 284°
2026-05-08 02:23 25.25643 54.35142 25806 ft 440 kts 284°
2026-05-08 02:24 25.26459 54.31889 25804 ft 439 kts 284°
2026-05-08 02:24 25.27272 54.28643 25807 ft 439 kts 283°
2026-05-08 02:24 25.28080 54.25386 25807 ft 439 kts 283°
2026-05-08 02:24 25.28884 54.22133 25807 ft 439 kts 283°
2026-05-08 02:25 25.29689 54.18877 25808 ft 439 kts 283°
2026-05-08 02:25 25.30491 54.15629 25807 ft 438 kts 283°
2026-05-08 02:25 25.31292 54.12378 25807 ft 438 kts 283°
2026-05-08 02:25 25.32023 54.09107 25806 ft 438 kts 281°
2026-05-08 02:26 25.32701 54.05827 25805 ft 438 kts 281°
2026-05-08 02:26 25.33364 54.02578 25808 ft 438 kts 281°
2026-05-08 02:26 25.34041 53.99297 25805 ft 438 kts 281°
2026-05-08 02:26 25.34725 53.96015 25805 ft 438 kts 281°
2026-05-08 02:27 25.35413 53.92740 25806 ft 438 kts 281°
2026-05-08 02:27 25.36106 53.89451 25807 ft 438 kts 281°
2026-05-08 02:27 25.36797 53.86172 25808 ft 438 kts 281°
2026-05-08 02:27 25.37489 53.82885 25806 ft 438 kts 281°
2026-05-08 02:28 25.38178 53.79607 25807 ft 438 kts 281°
2026-05-08 02:28 25.38869 53.76324 25807 ft 438 kts 281°
2026-05-08 02:28 25.39557 53.73047 25806 ft 438 kts 281°
2026-05-08 02:28 25.40245 53.69767 25808 ft 438 kts 281°
2026-05-08 02:29 25.40932 53.66487 25807 ft 438 kts 281°
2026-05-08 02:29 25.41617 53.63211 25807 ft 437 kts 281°
2026-05-08 02:29 25.42303 53.59926 25806 ft 438 kts 281°
2026-05-08 02:29 25.42988 53.56644 25806 ft 437 kts 281°
2026-05-08 02:30 25.43662 53.53408 25806 ft 437 kts 281°
2026-05-08 02:30 25.44343 53.50133 25809 ft 437 kts 281°
2026-05-08 02:30 25.45024 53.46854 25809 ft 437 kts 281°
2026-05-08 02:30 25.45704 53.43578 25808 ft 437 kts 281°
2026-05-08 02:31 25.46384 53.40301 25807 ft 437 kts 281°
2026-05-08 02:31 25.47062 53.37024 25808 ft 437 kts 281°
2026-05-08 02:31 25.47740 53.33745 25805 ft 437 kts 281°
2026-05-08 02:31 25.48418 53.30467 25801 ft 437 kts 281°
2026-05-08 02:32 25.49095 53.27187 25813 ft 437 kts 281°
2026-05-08 02:32 25.49771 53.23907 25799 ft 437 kts 281°
2026-05-08 02:32 25.50445 53.20627 25804 ft 437 kts 281°
2026-05-08 02:32 25.51118 53.17348 25812 ft 437 kts 281°
2026-05-08 02:33 25.51790 53.14066 25814 ft 436 kts 281°
2026-05-08 02:33 25.52462 53.10785 25809 ft 436 kts 281°
2026-05-08 02:33 25.53132 53.07505 25816 ft 436 kts 280°
2026-05-08 02:33 25.53793 53.04269 25816 ft 436 kts 280°
2026-05-08 02:34 25.54471 53.00944 25815 ft 436 kts 280°
2026-05-08 02:34 25.55129 52.97712 25804 ft 436 kts 280°
2026-05-08 02:34 25.55799 52.94435 25809 ft 436 kts 281°
2026-05-08 02:34 25.56670 52.91210 25820 ft 438 kts 287°
2026-05-08 02:35 25.57877 52.88101 25823 ft 440 kts 294°
2026-05-08 02:35 25.59340 52.85111 25810 ft 441 kts 296°
2026-05-08 02:35 25.60812 52.82129 25815 ft 441 kts 296°
2026-05-08 02:35 25.62272 52.79145 25811 ft 441 kts 295°
2026-05-08 02:36 25.63733 52.76147 25813 ft 441 kts 295°
2026-05-08 02:36 25.65189 52.73155 25813 ft 441 kts 295°
2026-05-08 02:36 25.66644 52.70164 25821 ft 440 kts 295°
2026-05-08 02:36 25.68100 52.67171 25812 ft 440 kts 295°
2026-05-08 02:37 25.69061 52.65194 25812 ft 440 kts 295°
2026-05-08 02:37 25.70512 52.62205 25815 ft 440 kts 295°
2026-05-08 02:37 25.71964 52.59215 25813 ft 440 kts 295°
2026-05-08 02:37 25.73414 52.56228 25805 ft 440 kts 295°
2026-05-08 02:38 25.74865 52.53236 25811 ft 440 kts 295°
2026-05-08 02:38 25.76312 52.50250 25813 ft 439 kts 295°
2026-05-08 02:38 25.77735 52.47245 25807 ft 439 kts 294°
2026-05-08 02:38 25.79131 52.44230 25811 ft 439 kts 294°
2026-05-08 02:39 25.80523 52.41208 25817 ft 439 kts 294°
2026-05-08 02:39 25.81915 52.38194 25811 ft 439 kts 294°
2026-05-08 02:39 25.83307 52.35184 25813 ft 439 kts 294°
2026-05-08 02:39 25.84705 52.32169 25816 ft 439 kts 294°
2026-05-08 02:40 25.86131 52.29176 25809 ft 440 kts 297°
2026-05-08 02:40 25.87806 52.26366 25808 ft 443 kts 303°
2026-05-08 02:40 25.89796 52.23739 25806 ft 445 kts 310°
2026-05-08 02:40 25.91914 52.21225 25813 ft 446 kts 309°
2026-05-08 02:41 25.94019 52.18699 25814 ft 446 kts 309°
2026-05-08 02:41 25.96121 52.16163 25811 ft 446 kts 309°
2026-05-08 02:41 25.98221 52.13623 25809 ft 446 kts 309°
2026-05-08 02:41 26.00321 52.11081 25811 ft 446 kts 309°
2026-05-08 02:42 26.02418 52.08541 25806 ft 446 kts 309°
2026-05-08 02:42 26.04516 52.06000 25809 ft 446 kts 309°
2026-05-08 02:42 26.06615 52.03458 25811 ft 446 kts 309°
2026-05-08 02:42 26.08716 52.00913 25807 ft 446 kts 309°
2026-05-08 02:43 26.10814 51.98371 25809 ft 446 kts 309°
2026-05-08 02:43 26.12915 51.95824 25808 ft 446 kts 309°
2026-05-08 02:43 26.15012 51.93280 25810 ft 447 kts 309°
2026-05-08 02:43 26.17112 51.90732 25811 ft 447 kts 309°
2026-05-08 02:44 26.19214 51.88180 25810 ft 447 kts 309°
2026-05-08 02:44 26.21316 51.85625 25809 ft 447 kts 309°
2026-05-08 02:44 26.23400 51.83056 25810 ft 446 kts 307°
2026-05-08 02:44 26.25251 51.80305 25812 ft 442 kts 300°
2026-05-08 02:45 26.26792 51.77361 25809 ft 439 kts 293°
2026-05-08 02:45 26.28132 51.74304 25811 ft 439 kts 292°
2026-05-08 02:45 26.29481 51.71250 25815 ft 439 kts 292°
2026-05-08 02:45 26.30841 51.68194 25815 ft 439 kts 292°
2026-05-08 02:46 26.32199 51.65146 25816 ft 439 kts 292°
2026-05-08 02:46 26.33560 51.62096 25816 ft 439 kts 292°
2026-05-08 02:46 26.34918 51.59054 25816 ft 439 kts 292°
2026-05-08 02:46 26.36275 51.56009 25817 ft 439 kts 292°
2026-05-08 02:47 26.37615 51.52958 25814 ft 437 kts 291°
2026-05-08 02:47 26.38713 51.49804 25823 ft 435 kts 285°
2026-05-08 02:47 26.39713 51.46627 25821 ft 435 kts 285°
2026-05-08 02:47 26.40723 51.43448 25823 ft 435 kts 286°
2026-05-08 02:48 26.41735 51.40276 25817 ft 435 kts 286°
2026-05-08 02:48 26.42750 51.37098 25659 ft 434 kts 286°
2026-05-08 02:48 26.43760 51.33937 25330 ft 432 kts 286°
2026-05-08 02:48 26.44737 51.30784 24767 ft 428 kts 283°
2026-05-08 02:49 26.45232 51.27545 24123 ft 421 kts 270°
2026-05-08 02:49 26.45044 51.24326 23631 ft 413 kts 257°
2026-05-08 02:49 26.44189 51.21299 23205 ft 407 kts 245°
2026-05-08 02:49 26.43051 51.18405 22832 ft 407 kts 244°
2026-05-08 02:50 26.41919 51.15512 22002 ft 409 kts 245°
2026-05-08 02:50 26.40808 51.12611 21346 ft 402 kts 245°
2026-05-08 02:50 26.39737 51.09764 20334 ft 396 kts 245°
2026-05-08 02:50 26.38671 51.06907 18957 ft 402 kts 245°
2026-05-08 02:51 26.37585 51.03988 17451 ft 411 kts 245°
2026-05-08 02:51 26.36503 51.01091 16284 ft 409 kts 246°
2026-05-08 02:51 26.35404 50.98146 15196 ft 401 kts 246°
2026-05-08 02:51 26.34608 50.95190 14168 ft 396 kts 261°
2026-05-08 02:52 26.34541 50.92221 13288 ft 384 kts 275°
2026-05-08 02:52 26.35184 50.89327 11963 ft 387 kts 291°
2026-05-08 02:52 26.36555 50.86781 11158 ft 378 kts 306°
2026-05-08 02:52 26.38212 50.84529 10396 ft 365 kts 309°
2026-05-08 02:53 26.39793 50.82366 9893 ft 349 kts 306°
2026-05-08 02:53 26.41198 50.80273 9649 ft 324 kts 303°
2026-05-08 02:53 26.42116 50.78128 9223 ft 302 kts 283°
2026-05-08 02:53 26.42235 50.75832 8719 ft 287 kts 259°
2026-05-08 02:54 26.41496 50.73779 8554 ft 288 kts 234°
2026-05-08 02:54 26.40067 50.72260 8429 ft 284 kts 210°
2026-05-08 02:54 26.38234 50.71499 8317 ft 283 kts 188°
2026-05-08 02:54 26.36281 50.71671 8204 ft 284 kts 163°
2026-05-08 02:55 26.34571 50.72762 8082 ft 286 kts 138°
2026-05-08 02:55 26.32727 50.76532 7891 ft 267 kts 111°
2026-05-08 02:55 26.32067 50.78384 7708 ft 249 kts 114°
2026-05-08 02:56 26.31305 50.80077 7323 ft 241 kts 124°
2026-05-08 02:56 26.30074 50.81294 7121 ft 241 kts 153°
2026-05-08 02:56 26.28459 50.81739 7013 ft 240 kts 180°
2026-05-08 02:56 26.26860 50.81292 6903 ft 240 kts 208°
2026-05-08 02:57 26.25648 50.80055 6817 ft 237 kts 237°
2026-05-08 02:57 26.25149 50.78376 6749 ft 224 kts 268°
2026-05-08 02:57 26.25334 50.76709 6653 ft 212 kts 283°
2026-05-08 02:57 26.25659 50.75121 6428 ft 210 kts 283°
2026-05-08 02:58 26.25890 50.73516 6177 ft 209 kts 278°
2026-05-08 02:58 26.25987 50.71898 5911 ft 209 kts 274°
2026-05-08 02:58 26.25988 50.70271 5636 ft 211 kts 272°
2026-05-08 02:58 26.25799 50.68665 5393 ft 211 kts 252°
2026-05-08 02:59 26.24928 50.67303 5158 ft 226 kts 222°
2026-05-08 02:59 26.23510 50.66567 5010 ft 226 kts 189°
2026-05-08 02:59 26.21996 50.66725 4900 ft 215 kts 156°
2026-05-08 02:59 26.20806 50.67603 4857 ft 199 kts 134°
2026-05-08 03:00 26.19826 50.68640 4780 ft 191 kts 132°
2026-05-08 03:00 26.18855 50.69594 4647 ft 188 kts 136°
2026-05-08 03:00 26.17801 50.70458 4428 ft 189 kts 142°
2026-05-08 03:00 26.16672 50.71237 4194 ft 193 kts 145°
2026-05-08 03:01 26.15496 50.71970 4016 ft 194 kts 146°
2026-05-08 03:01 26.14315 50.72684 3867 ft 191 kts 147°
2026-05-08 03:01 26.13232 50.73481 3656 ft 185 kts 128°
2026-05-08 03:01 26.12697 50.74703 3429 ft 172 kts 90°
2026-05-08 03:02 26.12935 50.75935 3205 ft 158 kts 49°
2026-05-08 03:02 26.13741 50.76554 3160 ft 135 kts
2026-05-08 03:02 26.14643 50.76530 3019 ft 130 kts 352°
2026-05-08 03:02 26.15540 50.76320 2727 ft 131 kts 349°
2026-05-08 03:03 26.16418 50.76068 2425 ft 129 kts 349°
2026-05-08 03:03 26.17277 50.75812 2158 ft 127 kts 350°
2026-05-08 03:03 26.18116 50.75576 1953 ft 122 kts 351°
2026-05-08 03:03 26.18926 50.75351 1743 ft 121 kts 351°
2026-05-08 03:04 26.19714 50.75037 1536 ft 121 kts 341°
2026-05-08 03:04 26.20443 50.74488 1491 ft 128 kts 328°
2026-05-08 03:04 26.21051 50.73737 1508 ft 138 kts 319°
2026-05-08 03:04 26.21587 50.72875 1509 ft 135 kts 314°
2026-05-08 03:05 26.22114 50.71978 1494 ft 135 kts 314°
2026-05-08 03:05 26.22619 50.71071 1447 ft 141 kts 312°
2026-05-08 03:05 26.23089 50.70153 1225 ft 135 kts 311°
2026-05-08 03:05 26.23591 50.69283 884 ft 128 kts 312°
2026-05-08 03:06 26.24097 50.68523 688 ft 117 kts 311°
2026-05-08 03:06 26.24546 50.67718 585 ft 129 kts 304°
2026-05-08 03:06 26.25023 50.66915 465 ft 119 kts 300°
2026-05-08 03:06 26.25442 50.66179 292 ft 108 kts 301°
2026-05-08 03:07 26.25871 50.65452 170 ft 124 kts 298°
2026-05-08 03:07 26.26357 50.64617 54 ft 128 kts 299°
2026-05-08 03:07 26.26797 50.63836 24 ft 108 kts 303°
2026-05-08 03:07 26.27120 50.63285 24 ft 72 kts 303°
2026-05-08 03:08 26.27251 50.63020 22 ft 17 kts 273°
2026-05-08 03:08 26.27251 50.62856 24 ft 22 kts 263°
2026-05-08 03:08 26.27244 50.62692 28 ft 11 kts 256°
2026-05-08 03:08 26.27193 50.62615 25 ft 14 kts 217°
2026-05-08 03:09 26.27131 50.62570 28 ft 1 kts 213°
2026-05-08 03:09 26.27120 50.62561 26 ft 1 kts 213°
2026-05-08 03:09 26.27109 50.62554 26 ft 0 kts 210°